Weather History for Siler City Muni, Siler City,, NC

Change the Weather History Date:

Saturday, August 16, 2014

  Actual Average (KHBI) Record (KHBI)
Temperature  
Mean Temperature 75 °F -  
Max Temperature 86 °F 87 °F 100 °F (1954)
Min Temperature 64 °F 67 °F 54 °F (1961)
Cooling Degree Days 10    
Growing Degree Days 25 (Base 50)    
Moisture  
Dew Point 67 °F    
Average Humidity 80    
Maximum Humidity 100    
Minimum Humidity 52    
Precipitation  
Precipitation 0.00 in - - ()
Sea Level Pressure  
Sea Level Pressure 30.02 in    
Wind  
Wind Speed 1 mph (WNW)    
Max Wind Speed 6 mph    
Max Gust Speed -    
Visibility 9 miles    
Events      
Averages and records for this station are not official NWS values.
T = Trace of Precipitation, MM = Missing Value Source: NWS Daily Summary

Daily Weather History Graph

Daily Weather History Graph

Search for Another Location

Airport:

Trip Planner

Search our weather history database for the weather conditions in past years. The results will help you decide how hot, cold, wet, or windy it might be!

Date:

Astronomy

Aug. 16, 2014 Rise Set
Actual Time 6:37 AM EDT 8:06 PM EDT
Civil Twilight 6:10 AM EDT 8:33 PM EDT
Nautical Twilight 5:38 AM EDT 9:05 PM EDT
Astronomical Twilight 5:04 AM EDT 9:39 PM EDT
Moon No Moon Rise 1:07 PM EDT (8/16)
Length of Visible Light 14h 22m
Length of Day
13h 28m
Waning Gibbous, 59% of the Moon is Illuminated
Aug 16
Waning Gibbous
Aug 17
Last Quarter
Aug 25
New
Sep 2
First Quarter
Sep 8
Full

Hourly Weather History & Observations

Time (EDT) Temp. Heat Index Dew Point Humidity Pressure Visibility Wind Dir Wind Speed Gust Speed Precip Events Conditions
12:15 AM 66.9 °F - 66.0 °F 97% 30.00 in 10.0 mi Calm Calm - N/A   Clear
12:35 AM 66.6 °F - 65.8 °F 98% 30.01 in 10.0 mi Calm Calm - N/A   Scattered Clouds
12:55 AM 66.2 °F - 66.0 °F 99% 30.01 in 7.0 mi Calm Calm - N/A   Scattered Clouds
1:15 AM 67.3 °F - 66.4 °F 97% 30.00 in 10.0 mi Calm Calm - N/A   Clear
1:35 AM 66.9 °F - 66.2 °F 98% 30.00 in 10.0 mi Calm Calm - N/A   Clear
1:55 AM 66.6 °F - 66.2 °F 99% 30.00 in 7.0 mi Calm Calm - N/A   Clear
2:15 AM 66.2 °F - 66.0 °F 99% 30.00 in 7.0 mi Calm Calm - N/A   Clear
2:35 AM 66.2 °F - 66.2 °F 100% 29.99 in 7.0 mi Calm Calm - N/A   Scattered Clouds
2:55 AM 66.2 °F - 65.8 °F 99% 29.99 in 7.0 mi Calm Calm - N/A   Overcast
3:15 AM 66.2 °F - 65.7 °F 98% 30.00 in 10.0 mi Calm Calm - N/A   Overcast
3:35 AM 65.7 °F - 65.7 °F 100% 30.00 in 7.0 mi Calm Calm - N/A   Mostly Cloudy
3:55 AM 64.8 °F - 64.8 °F 100% 30.00 in 7.0 mi Calm Calm - N/A   Scattered Clouds
4:15 AM 65.1 °F - 65.1 °F 100% 30.00 in 7.0 mi Calm Calm - N/A   Scattered Clouds
4:35 AM 65.7 °F - 65.1 °F 98% 30.01 in 10.0 mi Calm Calm - N/A   Mostly Cloudy
4:55 AM 65.3 °F - 64.9 °F 99% 30.01 in 7.0 mi Calm Calm - N/A   Mostly Cloudy
5:15 AM 65.3 °F - 64.9 °F 99% 30.02 in 7.0 mi Calm Calm - N/A   Overcast
5:35 AM 65.8 °F - 65.7 °F 99% 30.02 in 7.0 mi Calm Calm - N/A   Overcast
5:55 AM 66.7 °F - 66.6 °F 99% 30.02 in 7.0 mi Calm Calm - N/A   Overcast
6:15 AM 67.3 °F - 66.6 °F 98% 30.03 in 10.0 mi Calm Calm - N/A   Overcast
6:35 AM 66.6 °F - 66.2 °F 99% 30.03 in 7.0 mi Calm Calm - N/A   Mostly Cloudy
6:55 AM 65.7 °F - 65.5 °F 99% 30.03 in 5.0 mi Calm Calm - N/A   Scattered Clouds
7:15 AM 66.7 °F - 65.7 °F 96% 30.03 in 10.0 mi Calm Calm - N/A   Clear
7:35 AM 66.7 °F - 65.5 °F 96% 30.03 in 10.0 mi Calm Calm - N/A   Clear
7:55 AM 68.0 °F - 65.3 °F 91% 30.04 in 10.0 mi Calm Calm - N/A   Clear
8:10 AM 68.9 °F - 65.5 °F 89% 30.04 in 10.0 mi North 3.5 mph - N/A   Clear
8:35 AM 70.2 °F - 64.9 °F 83% 30.04 in 10.0 mi Calm Calm - N/A   Clear
8:55 AM 72.5 °F - 64.8 °F 77% 30.04 in 5.0 mi North 3.5 mph - N/A   Haze
9:15 AM 74.5 °F - 64.6 °F 71% 30.05 in 10.0 mi NNE 3.5 mph - N/A   Clear
9:35 AM 74.3 °F - 63.9 °F 70% 30.04 in 10.0 mi North 4.6 mph - N/A   Clear
9:55 AM 75.6 °F - 64.8 °F 69% 30.05 in 10.0 mi NE 3.5 mph - N/A   Clear
10:15 AM 77.4 °F - 64.9 °F 65% 30.05 in 10.0 mi Calm Calm - N/A   Clear
10:35 AM 77.9 °F - 64.4 °F 63% 30.05 in 10.0 mi North 4.6 mph - N/A   Clear
10:55 AM 78.4 °F - 63.9 °F 61% 30.05 in 10.0 mi NNW 3.5 mph - N/A   Clear
11:15 AM 79.2 °F - 65.1 °F 62% 30.06 in 10.0 mi NNE 3.5 mph - N/A   Clear
11:35 AM 79.9 °F - 64.0 °F 58% 30.05 in 10.0 mi East 4.6 mph - N/A   Clear
11:55 AM 80.6 °F 82.2 °F 63.9 °F 57% 30.05 in 10.0 mi Calm Calm - N/A   Clear
12:15 PM 81.5 °F 83.1 °F 64.6 °F 56% 30.05 in 10.0 mi Calm Calm - N/A   Clear
12:35 PM 81.0 °F 82.5 °F 63.7 °F 56% 30.05 in 10.0 mi Calm Calm - N/A   Clear
12:55 PM 82.0 °F 83.6 °F 64.2 °F 55% 30.05 in 10.0 mi Calm Calm - N/A   Clear
1:15 PM 82.0 °F 83.9 °F 65.7 °F 57% 30.04 in 10.0 mi Calm Calm - N/A   Clear
1:35 PM 82.6 °F 84.3 °F 65.1 °F 55% 30.04 in 10.0 mi Calm Calm - N/A   Clear
1:55 PM 82.9 °F 85.0 °F 65.7 °F 56% 30.03 in 10.0 mi Calm Calm - N/A   Clear
2:15 PM 83.8 °F 85.8 °F 65.5 °F 54% 30.03 in 10.0 mi Calm Calm - N/A   Clear
2:35 PM 83.7 °F 85.8 °F 65.8 °F 55% 30.02 in 10.0 mi WNW 4.6 mph - N/A   Clear
2:50 PM 84.4 °F 86.8 °F 66.4 °F 55% 30.02 in 10.0 mi Calm Calm - N/A   Clear
3:15 PM 84.6 °F 87.1 °F 66.9 °F 55% 30.01 in 10.0 mi WSW 5.8 mph - N/A   Clear
3:35 PM 85.1 °F 87.9 °F 67.3 °F 55% 30.01 in 10.0 mi SW 4.6 mph - N/A   Clear
3:55 PM 84.4 °F 86.8 °F 66.6 °F 55% 30.00 in 10.0 mi Calm Calm - N/A   Clear
4:15 PM 85.1 °F 87.1 °F 65.7 °F 52% 30.00 in 10.0 mi WSW 3.5 mph - N/A   Clear
4:35 PM 86.4 °F 89.7 °F 68.0 °F 54% 30.00 in 10.0 mi West 3.5 mph - N/A   Clear
4:55 PM 85.3 °F 87.6 °F 66.6 °F 53% 30.00 in 10.0 mi NW 3.5 mph - N/A   Clear
5:15 PM 85.3 °F 87.9 °F 66.9 °F 54% 29.99 in 10.0 mi SSW 4.6 mph - N/A   Scattered Clouds
5:35 PM 84.9 °F 87.6 °F 67.1 °F 55% 29.99 in 10.0 mi Calm Calm - N/A   Scattered Clouds
5:55 PM 85.8 °F 88.5 °F 66.7 °F 53% 29.99 in 10.0 mi SSW 5.8 mph - N/A   Scattered Clouds
6:15 PM 84.9 °F 87.6 °F 67.3 °F 55% 29.99 in 10.0 mi Calm Calm - N/A   Scattered Clouds
6:35 PM 84.6 °F 87.1 °F 66.9 °F 55% 29.99 in 10.0 mi SW 3.5 mph - N/A   Scattered Clouds
6:55 PM 82.9 °F 86.5 °F 69.1 °F 63% 29.99 in 10.0 mi SW 3.5 mph - N/A   Scattered Clouds
7:15 PM 82.4 °F 85.4 °F 68.0 °F 62% 29.99 in 10.0 mi SW 3.5 mph - N/A   Clear
7:35 PM 78.1 °F - 72.0 °F 81% 30.00 in 10.0 mi Calm Calm - N/A   Clear
7:55 PM 76.3 °F - 71.4 °F 85% 30.01 in 10.0 mi Calm Calm - N/A   Clear
8:15 PM 75.4 °F - 71.4 °F 87% 30.01 in 10.0 mi Calm Calm - N/A   Clear
8:35 PM 73.2 °F - 70.9 °F 92% 30.01 in 10.0 mi Calm Calm - N/A   Clear
8:55 PM 72.1 °F - 70.9 °F 96% 30.01 in 10.0 mi Calm Calm - N/A   Clear
9:15 PM 72.1 °F - 70.9 °F 96% 30.02 in 10.0 mi Calm Calm - N/A   Clear
9:35 PM 70.3 °F - 70.0 °F 99% 30.02 in 7.0 mi Calm Calm - N/A   Clear
9:55 PM 70.0 °F - 69.4 °F 98% 30.02 in 7.0 mi Calm Calm - N/A   Clear
10:15 PM 70.0 °F - 69.6 °F 99% 30.02 in 7.0 mi Calm Calm - N/A   Clear
10:35 PM 69.6 °F - 69.3 °F 99% 30.02 in 7.0 mi Calm Calm - N/A   Clear
10:55 PM 69.3 °F - 68.9 °F 99% 30.03 in 7.0 mi Calm Calm - N/A   Clear
11:15 PM 69.1 °F - 68.9 °F 99% 30.02 in 7.0 mi Calm Calm - N/A   Clear
11:35 PM 68.4 °F - 68.0 °F 99% 30.02 in 7.0 mi Calm Calm - N/A   Clear
11:55 PM 67.8 °F - 67.8 °F 100% 30.03 in 7.0 mi Calm Calm - N/A   Clear